Flag for Spain Weather past 2 weeks in Santa Cruz de Tenerife, Canary Islands, Spain

Now
75 °F

Clear.


Feels Like: 78 °F
Forecast: 73 / 80 °F
Wind: 3 mph from Northwest

Location: Tenerife Sur

Current Time: Oct 23, 2014 at 4:12:08 AM

Latest Report: Oct 23, 2014 at 3:30 AM


Visibility: 10 mi

Pressure: 30.07 "Hg

Humidity: 54%

Dew point: 57 °F

Location of Santa Cruz de TenerifeLocation

Historic Weather in Santa Cruz de Tenerife — Graph

°F

Santa Cruz de Tenerife temperature yesterday

Maximum temperature yesterday: 99 °F (at 2:30 PM)
Minimum temperature yesterday: 77 °F (at 12:00 AM)
Average temperature yesterday: 87 °F

Past Weeks' High & Low Weather Summary

 TemperatureHumidityPressure
High99 °F (Oct 22, 2:30 PM)94% (Oct 18, 11:30 PM)30.15 "Hg (Oct 18, 11:30 PM)
Low66 °F (Oct 14, 3:30 AM)13% (Oct 22, 1:30 PM)29.77 "Hg (Oct 19, 2:30 PM)
Average75 °F66%30.02 "Hg
* Reported Oct 8 3:00 AM — Oct 23 3:00 AM, Santa Cruz de Tenerife, Weather by CustomWeather, © 2014

Note: Actual official high and low records may vary slightly from our data, if they occured in-between our weather recording intervals... More about our weather records

Advertising

Santa Cruz de Tenerife weather history for previous 24 hours

 ConditionsComfort  
Time TempWeatherWind HumidityBarometerVisibility
3:00 AM
Oct 23
73 °FClear.2 mph57%30.07 "Hg10 mi
2:30 AM79 °FClear.1 mph45%30.07 "Hg10 mi
2:00 AM77 °FClear.1 mph51%30.07 "Hg10 mi
1:30 AM77 °FClear.2 mph57%30.09 "Hg10 mi
1:00 AM79 °FClear.5 mph58%30.09 "Hg10 mi
12:30 AM77 °FClear.1 mph47%30.09 "Hg10 mi
12:00 AM75 °FClear.2 mph61%30.09 "Hg10 mi
11:30 PM
Oct 22
77 °FClear.2 mph61%30.09 "Hg10 mi
11:00 PM77 °FClear.1 mph54%30.09 "Hg10 mi
10:30 PM77 °FClear.1 mph65%30.09 "Hg10 mi
10:00 PM77 °FClear.1 mph65%30.09 "Hg10 mi
9:30 PM79 °FClear.2 mph65%30.09 "Hg10 mi
9:00 PM81 °FClear.No wind48%30.07 "Hg10 mi
8:30 PM82 °FClear.2 mph42%30.07 "Hg10 mi
8:00 PM82 °FPassing clouds.5 mph45%30.07 "HgN/A
7:30 PM86 °FPassing clouds.6 mph29%30.07 "HgN/A
7:00 PM91 °FPassing clouds.10 mph17%30.04 "HgN/A
6:30 PM93 °FPassing clouds.14 mph15%30.04 "HgN/A
6:00 PM95 °FPassing clouds.15 mph13%30.04 "HgN/A
5:30 PM95 °FPassing clouds.17 mph13%30.04 "HgN/A
5:00 PM97 °FPassing clouds.17 mph13%30.04 "HgN/A
4:30 PM97 °FPassing clouds.17 mph13%30.07 "HgN/A
4:00 PM97 °FPassing clouds.17 mph13%30.07 "HgN/A
3:30 PM97 °FPassing clouds.23 mph13%30.07 "HgN/A
3:00 PM97 °FPassing clouds.23 mph14%30.07 "HgN/A
2:30 PM99 °FPassing clouds.24 mph14%30.07 "HgN/A
2:00 PM97 °FPassing clouds.26 mph13%30.09 "HgN/A
1:30 PM97 °FPassing clouds.28 mph13%30.09 "HgN/A
1:00 PM95 °FSunny.28 mph15%30.09 "Hg10 mi
12:30 PM95 °FSunny.26 mph16%30.12 "Hg10 mi
12:00 PM93 °FSunny.28 mph19%30.12 "Hg10 mi
11:30 AM93 °FSunny.30 mph20%30.12 "Hg10 mi
11:00 AM91 °FSunny.28 mph20%30.12 "Hg10 mi
10:30 AM90 °FSunny.31 mph21%30.12 "Hg10 mi
10:00 AM90 °FPassing clouds.30 mph22%30.12 "HgN/A
9:30 AM88 °FPassing clouds.26 mph22%30.12 "HgN/A
9:00 AM88 °FPassing clouds.28 mph25%30.12 "HgN/A
8:30 AM86 °FPassing clouds.28 mph27%30.12 "HgN/A
8:00 AM86 °FPassing clouds.29 mph25%30.09 "HgN/A
7:30 AM86 °FPassing clouds.24 mph25%30.09 "HgN/A
7:00 AM86 °FPassing clouds.25 mph27%30.09 "HgN/A
6:30 AM86 °FPassing clouds.20 mph27%30.09 "HgN/A
6:00 AM86 °FPassing clouds.18 mph29%30.09 "HgN/A
5:30 AM84 °FPassing clouds.23 mph33%30.09 "HgN/A
5:00 AM84 °FPassing clouds.22 mph33%30.09 "HgN/A
4:30 AM84 °FPassing clouds.22 mph33%30.09 "HgN/A
4:00 AM84 °FPassing clouds.20 mph33%30.12 "HgN/A
Weather by CustomWeather, © 2014

See weather overviewHow to use our weather pages